Find Starlink 37508

NORAD ID: 69257 Int'l Des: 2026-117 Owner: SPXS Country: US Constellation: starlink operational
LEOCIRCULAR

現在のビュー

3D地球を読み込み中...

About Starlink 37508

Starlink 37508 (NORAD 69257) is a starlink constellation satellite (v2 mini) launched May 29, 2026 by SPXS of US. It operates in LEO, CIRCULAR orbit with a mass of 575.00 kg.

Starlink 37508について

説明を読み込み中...

次回通過

Passes for default location (London). Set your location on the main map for personalized predictions.

高度履歴

Loading altitude history...

軌道要素

1 69257U 26117V 26191.99258098 .00005755 00000-0 18133-3 0 9996
2 69257 53.1614 127.6516 0005779 163.6325 196.4865 15.34402075 6694
Epoch: Jul 10, 2026 • Age: 40 hours

現在のステータス

高度 481.1 km
遠地点 / 近地点 N/A
速度 7.62 km/s
衛星直下点 -52.61°S, 154.25°W
打ち上げ日 May 29, 2026
運用期間 0.1 years
タイプ internet

技術仕様

分類 Payload
質量 575.00 kg
乾燥質量 530.00 kg
総質量 575.00 kg
長さ 0.30 m
直径 4.10 m
スパン 29.00 m
形状 Box + pan
製造者 SPXS
バスタイプ Starlink V2MO
フェーズステータス In Orbit
所有者/国 SPXS/US

Most Searched